User: anonymous   Login
Location: Columbia
(38.9520°N, 92.3340°W)
Time: 07:21:02
(UTC-05:00)
Language:

Cosmos 1603 - Orbit

View from above orbital plane
View from above orbital plane
View from above satellite
View from above satellite

Ground track
Ground track

The orbit data is extracted from the following two-line orbital elements,

1 15333U 84106A   17267.24314493 -.00000099  00000-0 -27142-4 0  9997
2 15333  71.0259 244.9519 0017776  50.9144 309.3556 14.14065159702260
Epoch (UTC): 24 September 2017 05:50:07
Eccentricity: 0.0017776
inclination: 71.0259°
perigee height: 832 km
apogee height: 858 km
right ascension of ascending node: 244.9519°
argument of perigee: 50.9144°
revolutions per day: 14.14065159
mean anomaly at epoch: 309.3556°
orbit number at epoch: 70226

The dashed part of the orbit path shows where the satellite is in the earth's shadow,  

DLR